When you browse on this site, cookies collect data to enhance your experience and personalize the content and advertising you see.
Visit our Privacy Policy to learn more. By continuing to use the site, you agree to this use of cookies and data.
  • In Schweiz
  • Länderverzeichnis
  • Für 7 Tage
  • Wassertemperatur
  • Satellitenkarten
  • Wetterkarte
  • Widgets
  • user-avatar
    Anmelden

    Stündliche Wetter Darwin

    Heute, 22 Januar, Dienstag

    Zeit Temperatur Niederschläge Wind Luftdruck Luftfeuchtigkeit
    00:00 +32°C° 0 mm 5 m/S 754 mmHg 79%
    01:00 +30°C° 0 mm 5 m/S 754 mmHg 79%
    02:00 +30°C° 0 mm 5 m/S 754 mmHg 79%
    03:00 +30°C° 0 mm 5 m/S 754 mmHg 80%
    04:00 +30°C° 0 mm 5 m/S 754 mmHg 81%
    05:00 +30°C° 0 mm 5 m/S 754 mmHg 81%
    06:00 +29°C° 0 mm 5 m/S 754 mmHg 81%
    07:00 +30°C° 0.2 mm 5 m/S 754 mmHg 78%
    08:00 +32°C° 0.2 mm 6 m/S 754 mmHg 74%
    09:00 +33°C° 0.2 mm 6 m/S 755 mmHg 71%
    10:00 +34°C° 1.3 mm 6 m/S 755 mmHg 68%
    11:00 +34°C° 1.3 mm 6 m/S 754 mmHg 66%
    12:00 +35°C° 1.3 mm 6 m/S 754 mmHg 63%
    13:00 +34°C° 0.7 mm 5 m/S 754 mmHg 69%
    14:00 +33°C° 0.7 mm 5 m/S 754 mmHg 74%
    15:00 +32°C° 0.7 mm 4 m/S 754 mmHg 79%
    16:00 +30°C° 0.6 mm 4 m/S 754 mmHg 82%
    17:00 +30°C° 0.6 mm 4 m/S 754 mmHg 85%
    18:00 +29°C° 0.6 mm 4 m/S 754 mmHg 87%
    19:00 +29°C° 1.2 mm 4 m/S 754 mmHg 88%
    20:00 +29°C° 1.2 mm 4 m/S 755 mmHg 89%
    21:00 +29°C° 1.2 mm 3 m/S 755 mmHg 90%
    22:00 +28°C° 0.7 mm 3 m/S 755 mmHg 91%
    23:00 +28°C° 0.7 mm 3 m/S 755 mmHg 91%

    Morgen, 23 Januar, Mittwoch

    Zeit Temperatur Niederschläge Wind Luftdruck Luftfeuchtigkeit
    00:00 +28°C° 0.7 mm 3 m/S 755 mmHg 92%
    01:00 +28°C° 0.2 mm 3 m/S 755 mmHg 92%
    02:00 +28°C° 0.2 mm 4 m/S 754 mmHg 92%
    03:00 +28°C° 0.2 mm 4 m/S 754 mmHg 91%
    04:00 +28°C° 0.1 mm 4 m/S 754 mmHg 92%
    05:00 +28°C° 0.1 mm 4 m/S 754 mmHg 92%
    06:00 +28°C° 0.1 mm 4 m/S 754 mmHg 92%
    07:00 +29°C° 0.1 mm 4 m/S 755 mmHg 86%
    08:00 +32°C° 0.1 mm 4 m/S 755 mmHg 81%
    09:00 +33°C° 0.1 mm 4 m/S 755 mmHg 76%
    10:00 +34°C° 1.9 mm 4 m/S 755 mmHg 72%
    11:00 +35°C° 1.9 mm 4 m/S 755 mmHg 68%
    12:00 +35°C° 1.9 mm 4 m/S 754 mmHg 63%
    13:00 +34°C° 4.5 mm 4 m/S 754 mmHg 69%
    14:00 +33°C° 4.5 mm 5 m/S 754 mmHg 74%
    15:00 +32°C° 4.5 mm 5 m/S 753 mmHg 79%
    16:00 +30°C° 2.3 mm 5 m/S 753 mmHg 81%
    17:00 +30°C° 2.3 mm 4 m/S 753 mmHg 82%
    18:00 +30°C° 2.3 mm 4 m/S 753 mmHg 83%
    19:00 +29°C° 0.3 mm 4 m/S 754 mmHg 84%
    20:00 +29°C° 0.3 mm 4 m/S 754 mmHg 84%
    21:00 +29°C° 0.3 mm 4 m/S 755 mmHg 85%
    22:00 +29°C° 0 mm 4 m/S 755 mmHg 85%
    23:00 +29°C° 0 mm 4 m/S 755 mmHg 86%

    übermorgen, 24 Januar, Donnerstag

    Zeit Temperatur Niederschläge Wind Luftdruck Luftfeuchtigkeit
    00:00 +29°C° 0 mm 4 m/S 755 mmHg 86%
    01:00 +29°C° 0 mm 4 m/S 754 mmHg 86%
    02:00 +29°C° 0 mm 4 m/S 754 mmHg 87%
    03:00 +29°C° 0 mm 4 m/S 753 mmHg 87%
    04:00 +29°C° 0.3 mm 4 m/S 753 mmHg 88%
    05:00 +29°C° 0.3 mm 4 m/S 753 mmHg 88%
    06:00 +29°C° 0.3 mm 4 m/S 753 mmHg 89%
    07:00 +30°C° 0.6 mm 4 m/S 754 mmHg 86%
    08:00 +32°C° 0.6 mm 4 m/S 754 mmHg 83%
    09:00 +32°C° 0.6 mm 4 m/S 754 mmHg 80%
    10:00 +32°C° 3.1 mm 4 m/S 754 mmHg 80%
    11:00 +32°C° 3.1 mm 4 m/S 754 mmHg 80%
    12:00 +33°C° 3.1 mm 4 m/S 754 mmHg 80%
    13:00 +33°C° 2.1 mm 4 m/S 753 mmHg 78%
    14:00 +33°C° 2.1 mm 4 m/S 753 mmHg 76%
    15:00 +33°C° 2.1 mm 4 m/S 752 mmHg 75%
    16:00 +32°C° 1 mm 4 m/S 753 mmHg 78%
    17:00 +32°C° 1 mm 4 m/S 753 mmHg 82%
    18:00 +30°C° 1 mm 4 m/S 753 mmHg 85%
    19:00 +30°C° 0.1 mm 4 m/S 754 mmHg 86%
    20:00 +30°C° 0.1 mm 3 m/S 754 mmHg 86%
    21:00 +29°C° 0.1 mm 3 m/S 755 mmHg 87%
    22:00 +29°C° 0.4 mm 3 m/S 755 mmHg 87%
    23:00 +29°C° 0.4 mm 4 m/S 755 mmHg 87%

    25 Januar, Freitag

    Zeit Temperatur Niederschläge Wind Luftdruck Luftfeuchtigkeit
    00:00 +29°C° 0.4 mm 4 m/S 755 mmHg 88%
    01:00 +29°C° 0.3 mm 4 m/S 755 mmHg 87%
    02:00 +29°C° 0.3 mm 5 m/S 754 mmHg 87%
    03:00 +29°C° 0.3 mm 5 m/S 754 mmHg 86%
    04:00 +29°C° 0.6 mm 5 m/S 754 mmHg 86%
    05:00 +29°C° 0.6 mm 5 m/S 754 mmHg 86%
    06:00 +29°C° 0.6 mm 5 m/S 754 mmHg 87%
    07:00 +29°C° 0.6 mm 4 m/S 755 mmHg 86%
    08:00 +29°C° 0.6 mm 4 m/S 755 mmHg 86%
    09:00 +29°C° 0.6 mm 3 m/S 756 mmHg 86%
    10:00 +29°C° 0.3 mm 3 m/S 756 mmHg 85%
    11:00 +30°C° 0.3 mm 3 m/S 755 mmHg 84%
    12:00 +30°C° 0.3 mm 3 m/S 755 mmHg 83%
    13:00 +30°C° 0.1 mm 3 m/S 755 mmHg 83%
    14:00 +30°C° 0.1 mm 2 m/S 754 mmHg 82%
    15:00 +30°C° 0.1 mm 2 m/S 754 mmHg 82%
    16:00 +30°C° 0.2 mm 3 m/S 754 mmHg 82%
    17:00 +30°C° 0.2 mm 3 m/S 754 mmHg 82%
    18:00 +30°C° 0.2 mm 3 m/S 754 mmHg 82%
    19:00 +29°C° 0.4 mm 3 m/S 755 mmHg 84%
    20:00 +29°C° 0.4 mm 4 m/S 755 mmHg 85%
    21:00 +29°C° 0.4 mm 4 m/S 756 mmHg 86%
    22:00 +29°C° 0 mm 4 m/S 756 mmHg 86%
    23:00 +29°C° 0 mm 5 m/S 756 mmHg 86%

    26 Januar, Samstag

    Zeit Temperatur Niederschläge Wind Luftdruck Luftfeuchtigkeit
    00:00 +29°C° 0 mm 6 m/S 756 mmHg 85%
    01:00 +29°C° 0 mm 6 m/S 755 mmHg 85%
    02:00 +29°C° 0 mm 6 m/S 755 mmHg 84%
    03:00 +29°C° 0 mm 5 m/S 755 mmHg 83%
    04:00 +29°C° 1.7 mm 5 m/S 755 mmHg 84%
    05:00 +29°C° 1.7 mm 4 m/S 755 mmHg 85%
    06:00 +29°C° 1.7 mm 4 m/S 755 mmHg 85%
    07:00 +29°C° 1.4 mm 4 m/S 756 mmHg 85%
    08:00 +29°C° 1.4 mm 4 m/S 756 mmHg 85%
    09:00 +30°C° 1.4 mm 4 m/S 757 mmHg 84%
    10:00 +30°C° 0.3 mm 4 m/S 756 mmHg 84%
    11:00 +30°C° 0.3 mm 4 m/S 756 mmHg 83%
    12:00 +30°C° 0.3 mm 4 m/S 756 mmHg 83%
    13:00 +32°C° 0 mm 5 m/S 755 mmHg 80%
    14:00 +32°C° 0 mm 6 m/S 754 mmHg 76%
    15:00 +33°C° 0 mm 6 m/S 754 mmHg 73%
    16:00 +33°C° 0 mm 6 m/S 754 mmHg 74%
    17:00 +32°C° 0 mm 6 m/S 754 mmHg 75%
    18:00 +32°C° 0 mm 6 m/S 755 mmHg 76%
    19:00 +32°C° 0 mm 6 m/S 755 mmHg 77%
    20:00 +30°C° 0 mm 5 m/S 755 mmHg 78%
    21:00 +30°C° 0 mm 5 m/S 756 mmHg 79%
    22:00 +30°C° 0 mm 6 m/S 755 mmHg 80%
    23:00 +30°C° 0 mm 6 m/S 755 mmHg 81%

    27 Januar, Sonntag

    Zeit Temperatur Niederschläge Wind Luftdruck Luftfeuchtigkeit
    00:00 +30°C° 0 mm 6 m/S 754 mmHg 82%
    01:00 +30°C° 0 mm 6 m/S 754 mmHg 81%
    02:00 +30°C° 0 mm 6 m/S 754 mmHg 80%
    03:00 +30°C° 0 mm 6 m/S 753 mmHg 80%
    04:00 +30°C° 0.1 mm 6 m/S 754 mmHg 79%
    05:00 +30°C° 0.1 mm 6 m/S 755 mmHg 79%
    06:00 +30°C° 0.1 mm 5 m/S 755 mmHg 79%
    07:00 +30°C° 0.3 mm 5 m/S 756 mmHg 78%
    08:00 +32°C° 0.3 mm 5 m/S 756 mmHg 76%
    09:00 +32°C° 0.3 mm 5 m/S 756 mmHg 74%
    10:00 +33°C° 0 mm 6 m/S 756 mmHg 70%
    11:00 +35°C° 0 mm 7 m/S 755 mmHg 66%
    12:00 +36°C° 0 mm 7 m/S 755 mmHg 62%
    13:00 +36°C° 0 mm 7 m/S 754 mmHg 62%
    14:00 +35°C° 0 mm 8 m/S 754 mmHg 62%
    15:00 +35°C° 0 mm 8 m/S 753 mmHg 62%
    16:00 +35°C° 0 mm 8 m/S 753 mmHg 65%
    17:00 +34°C° 0 mm 7 m/S 753 mmHg 68%
    18:00 +33°C° 0 mm 7 m/S 753 mmHg 71%
    19:00 +32°C° 0 mm 7 m/S 754 mmHg 73%
    20:00 +32°C° 0 mm 7 m/S 754 mmHg 75%
    21:00 +30°C° 0 mm 7 m/S 754 mmHg 77%
    22:00 +30°C° 0 mm 7 m/S 754 mmHg 77%
    23:00 +30°C° 0 mm 7 m/S 754 mmHg 77%
    Mehr zeigen